| time (UTC) | temp C | wind direction | speed KPH | gust KPH | rain 1hr cm | rain 24hr cm | rain mn cm | humidity % | barometer mb |
| 20260510220444 | 20 | 173 | 6.4 | 9.7 | 0.00 | 0.00 | 0.00 | 44 | 1013.8 |
| 20260510215940 | 20 | 190 | 0.0 | 4.8 | 0.00 | 0.00 | 0.00 | 44 | 1013.6 |
| 20260510215438 | 20 | 298 | 0.0 | 12.9 | 0.00 | 0.00 | 0.00 | 45 | 1013.3 |
| 20260510214935 | 20 | 134 | 1.6 | 14.5 | 0.00 | 0.00 | 0.00 | 45 | 1013.3 |
| 20260510214432 | 20 | 136 | 0.0 | 6.4 | 0.00 | 0.00 | 0.00 | 46 | 1013.2 |
| 20260510213929 | 20 | 280 | 4.8 | 11.3 | 0.00 | 0.00 | 0.00 | 48 | 1013.3 |
| 20260510213426 | 20 | 275 | 1.6 | 11.3 | 0.00 | 0.00 | 0.00 | 47 | 1013.1 |
| 20260510212922 | 20 | 100 | 1.6 | 6.4 | 0.00 | 0.00 | 0.00 | 48 | 1013.3 |
| 20260510212419 | 20 | 191 | 0.0 | 6.4 | 0.00 | 0.00 | 0.00 | 47 | 1013.1 |
| 20260510211916 | 21 | 283 | 1.6 | 3.2 | 0.00 | 0.00 | 0.00 | 49 | 1013.1 |
| 20260510211413 | 21 | 172 | 0.0 | 3.2 | 0.00 | 0.00 | 0.00 | 47 | 1013.2 |
| 20260510210908 | 21 | 267 | 0.0 | 3.2 | 0.00 | 0.00 | 0.00 | 50 | 1013.3 |
| 20260510210403 | 21 | 205 | 1.6 | 3.2 | 0.00 | 0.00 | 0.00 | 48 | 1013.1 |
| 20260510205902 | 21 | 204 | 6.4 | 9.7 | 0.00 | 0.00 | 0.00 | 47 | 1013.2 |
| 20260510205358 | 21 | 210 | 0.0 | 6.4 | 0.00 | 0.00 | 0.00 | 52 | 1012.9 |
| 20260510204854 | 21 | 123 | 1.6 | 1.6 | 0.00 | 0.00 | 0.00 | 48 | 1012.9 |
| 20260510204350 | 21 | 62 | 0.0 | 3.2 | 0.00 | 0.00 | 0.00 | 50 | 1013.0 |
| 20260510203847 | 21 | 316 | 0.0 | 3.2 | 0.00 | 0.00 | 0.00 | 50 | 1013.0 |
| 20260510203345 | 21 | 142 | 0.0 | 0.0 | 0.00 | 0.00 | 0.00 | 54 | 1012.8 |
| 20260510202840 | 19 | 286 | 0.0 | 4.8 | 0.00 | 0.00 | 0.00 | 57 | 1012.9 |
| 20260510202335 | 20 | 250 | 0.0 | 3.2 | 0.00 | 0.00 | 0.00 | 54 | 1013.1 |
| 20260510201832 | 21 | 298 | 1.6 | 6.4 | 0.00 | 0.00 | 0.00 | 52 | 1013.0 |
| 20260510201330 | 21 | 279 | 0.0 | 1.6 | 0.00 | 0.00 | 0.00 | 50 | 1013.0 |
| 20260510200826 | 21 | 150 | 3.2 | 12.9 | 0.00 | 0.00 | 0.00 | 52 | 1012.9 |
| 20260510200324 | 20 | 158 | 4.8 | 6.4 | 0.00 | 0.00 | 0.00 | 54 | 1013.0 |
| 20260510195819 | 21 | 129 | 0.0 | 1.6 | 0.00 | 0.00 | 0.00 | 54 | 1013.2 |
| 20260510195316 | 20 | 135 | 6.4 | 11.3 | 0.00 | 0.00 | 0.00 | 53 | 1013.0 |
| 20260510194811 | 20 | 295 | 4.8 | 11.3 | 0.00 | 0.00 | 0.00 | 55 | 1013.1 |
| 20260510194308 | 19 | 277 | 1.6 | 11.3 | 0.00 | 0.00 | 0.00 | 58 | 1013.0 |
| 20260510193804 | 19 | 102 | 1.6 | 9.7 | 0.00 | 0.00 | 0.00 | 57 | 1012.9 |
| 20260510193258 | 19 | 78 | 1.6 | 11.3 | 0.00 | 0.00 | 0.00 | 58 | 1013.1 |
| 20260510192755 | 20 | 310 | 0.0 | 9.7 | 0.00 | 0.00 | 0.00 | 56 | 1013.1 |
| 20260510192250 | 21 | 126 | 1.6 | 14.5 | 0.00 | 0.00 | 0.00 | 56 | 1013.0 |
| 20260510191746 | 21 | 27 | 0.0 | 9.7 | 0.00 | 0.00 | 0.00 | 55 | 1012.9 |
| 20260510191242 | 22 | 129 | 3.2 | 9.7 | 0.00 | 0.00 | 0.00 | 51 | 1013.1 |
| 20260510190741 | 21 | 115 | 0.0 | 6.4 | 0.00 | 0.00 | 0.00 | 53 | 1012.9 |
| 20260510190237 | 21 | 138 | 4.8 | 6.4 | 0.00 | 0.00 | 0.00 | 50 | 1012.9 |
| 20260510185733 | 21 | 143 | 3.2 | 9.7 | 0.00 | 0.00 | 0.00 | 52 | 1013.2 |
| 20260510185232 | 21 | 143 | 0.0 | 3.2 | 0.00 | 0.00 | 0.00 | 57 | 1013.1 |
| 20260510184728 | 21 | 119 | 1.6 | 9.7 | 0.00 | 0.00 | 0.00 | 54 | 1013.1 |
| 20260510184225 | 21 | 182 | 1.6 | 6.4 | 0.00 | 0.00 | 0.00 | 57 | 1012.9 |
| 20260510183720 | 21 | 146 | 1.6 | 6.4 | 0.00 | 0.00 | 0.00 | 57 | 1013.0 |
| 20260510183215 | 21 | 274 | 0.0 | 4.8 | 0.00 | 0.00 | 0.00 | 57 | 1012.9 |
| 20260510182712 | 21 | 80 | 0.0 | 6.4 | 0.00 | 0.00 | 0.00 | 58 | 1013.1 |
| 20260510182208 | 21 | 150 | 0.0 | 6.4 | 0.00 | 0.00 | 0.00 | 62 | 1013.2 |
| 20260510181704 | 20 | 83 | 3.2 | 9.7 | 0.00 | 0.00 | 0.00 | 61 | 1013.1 |
| 20260510181201 | 19 | 131 | 0.0 | 16.1 | 0.00 | 0.00 | 0.00 | 67 | 1013.0 |
| 20260510180657 | 19 | 90 | 0.0 | 4.8 | 0.00 | 0.00 | 0.00 | 69 | 1013.2 |
| 20260510180155 | 17 | 110 | 3.2 | 4.8 | 0.00 | 0.00 | 0.00 | 72 | 1013.2 |
| 20260510175651 | 16 | 103 | 3.2 | 4.8 | 0.00 | 0.00 | 0.00 | 76 | 1013.2 |
| 20260510175147 | 16 | 176 | 0.0 | 1.6 | 0.00 | 0.00 | 0.00 | 80 | 1013.3 |
| 20260510174644 | 16 | 47 | 0.0 | 0.0 | 0.00 | 0.00 | 0.00 | 82 | 1013.3 |
| 20260510174142 | 16 | 306 | 0.0 | 6.4 | 0.00 | 0.00 | 0.00 | 80 | 1013.3 |
| 20260510173638 | 17 | 207 | 0.0 | 0.0 | 0.00 | 0.00 | 0.00 | 78 | 1013.1 |
| 20260510173134 | 18 | 131 | 0.0 | 0.0 | 0.00 | 0.00 | 0.00 | 67 | 1012.8 |
| 20260510172629 | 18 | 117 | 0.0 | 4.8 | 0.00 | 0.00 | 0.00 | 65 | 1013.1 |
| 20260510172126 | 18 | 71 | 0.0 | 0.0 | 0.00 | 0.00 | 0.00 | 64 | 1013.1 |
| 20260510171623 | 17 | 137 | 0.0 | 0.0 | 0.00 | 0.00 | 0.00 | 67 | 1013.3 |
| 20260510171121 | 18 | 136 | 0.0 | 0.0 | 0.00 | 0.00 | 0.00 | 69 | 1013.2 |
| 20260510170616 | 18 | 46 | 0.0 | 4.8 | 0.00 | 0.00 | 0.00 | 66 | 1013.0 |
| 20260510170113 | 19 | 126 | 1.6 | 3.2 | 0.00 | 0.00 | 0.00 | 63 | 1013.2 |
| 20260510165609 | 19 | 181 | 3.2 | 6.4 | 0.00 | 0.00 | 0.00 | 61 | 1013.4 |
| 20260510165104 | 19 | 103 | 0.0 | 4.8 | 0.00 | 0.00 | 0.00 | 62 | 1013.4 |
| 20260510164602 | 21 | 124 | 0.0 | 1.6 | 0.00 | 0.00 | 0.00 | 61 | 1013.4 |
| 20260510164059 | 20 | 167 | 0.0 | 3.2 | 0.00 | 0.00 | 0.00 | 59 | 1013.3 |
| 20260510163554 | 20 | 180 | 6.4 | 14.5 | 0.00 | 0.00 | 0.00 | 62 | 1013.4 |
| 20260510163050 | 20 | 109 | 4.8 | 9.7 | 0.00 | 0.00 | 0.00 | 60 | 1013.4 |
| 20260510162545 | 20 | 183 | 0.0 | 11.3 | 0.00 | 0.00 | 0.00 | 66 | 1013.4 |
| 20260510162042 | 18 | 78 | 0.0 | 1.6 | 0.00 | 0.00 | 0.00 | 69 | 1013.6 |
| 20260510161538 | 18 | 91 | 0.0 | 4.8 | 0.00 | 0.00 | 0.00 | 69 | 1013.5 |
| 20260510161034 | 18 | 344 | 1.6 | 3.2 | 0.00 | 0.00 | 0.00 | 67 | 1013.5 |
| 20260510160526 | 18 | 179 | 0.0 | 3.2 | 0.00 | 0.00 | 0.00 | 69 | 1013.3 |
| 20260510160026 | 20 | 145 | 0.0 | 6.4 | 0.00 | 0.00 | 0.00 | 67 | 1013.4 |
| 20260510155522 | 18 | 171 | 0.0 | 3.2 | 0.00 | 0.00 | 0.00 | 69 | 1013.3 |
| 20260510155019 | 18 | 165 | 0.0 | 1.6 | 0.00 | 0.00 | 0.00 | 69 | 1013.5 |
| 20260510154514 | 19 | 170 | 0.0 | 0.0 | 0.00 | 0.00 | 0.00 | 68 | 1013.5 |
| 20260510154009 | 18 | 236 | 1.6 | 3.2 | 0.00 | 0.00 | 0.00 | 69 | 1013.4 |
| 20260510153504 | 18 | 112 | 1.6 | 4.8 | 0.00 | 0.00 | 0.00 | 72 | 1013.5 |
| 20260510153002 | 17 | 109 | 0.0 | 0.0 | 0.00 | 0.00 | 0.00 | 77 | 1013.5 |
| 20260510152459 | 17 | 168 | 0.0 | 3.2 | 0.00 | 0.00 | 0.00 | 76 | 1013.5 |
| 20260510151954 | 16 | 59 | 0.0 | 1.6 | 0.00 | 0.00 | 0.00 | 76 | 1013.4 |
| 20260510151451 | 16 | 130 | 1.6 | 3.2 | 0.00 | 0.00 | 0.00 | 76 | 1013.5 |
| 20260510150948 | 17 | 118 | 1.6 | 6.4 | 0.00 | 0.00 | 0.00 | 74 | 1013.6 |
| 20260510150438 | 16 | 134 | 0.0 | 4.8 | 0.00 | 0.00 | 0.00 | 77 | 1013.6 |
| 20260510145933 | 16 | 153 | 1.6 | 3.2 | 0.00 | 0.00 | 0.00 | 76 | 1013.5 |
| 20260510145425 | 16 | 159 | 0.0 | 9.7 | 0.00 | 0.00 | 0.00 | 85 | 1013.5 |
| 20260510144921 | 16 | 252 | 0.0 | 3.2 | 0.00 | 0.00 | 0.00 | 79 | 1013.7 |
| 20260510144418 | 15 | 167 | 0.0 | 3.2 | 0.00 | 0.00 | 0.00 | 85 | 1013.5 |
| 20260510143913 | 15 | 290 | 0.0 | 0.0 | 0.00 | 0.00 | 0.00 | 84 | 1013.3 |
| 20260510143409 | 15 | 171 | 0.0 | 0.0 | 0.00 | 0.00 | 0.00 | 86 | 1013.7 |
| 20260510142906 | 15 | 141 | 0.0 | 0.0 | 0.00 | 0.00 | 0.00 | 84 | 1013.7 |
| 20260510142403 | 15 | 147 | 0.0 | 3.2 | 0.00 | 0.00 | 0.00 | 86 | 1013.6 |
| 20260510141900 | 13 | 115 | 0.0 | 1.6 | 0.00 | 0.00 | 0.00 | 91 | 1013.7 |
| 20260510141357 | 13 | 181 | 0.0 | 3.2 | 0.00 | 0.00 | 0.00 | 92 | 1013.9 |
| 20260510140854 | 12 | 153 | 0.0 | 0.0 | 0.00 | 0.00 | 0.00 | 92 | 1013.8 |
| 20260510140349 | 12 | 149 | 0.0 | 0.0 | 0.00 | 0.00 | 0.00 | 94 | 1013.8 |
| 20260510135843 | 12 | 172 | 0.0 | 0.0 | 0.00 | 0.00 | 0.00 | 95 | 1013.9 |
| 20260510135339 | 12 | 106 | 0.0 | 0.0 | 0.00 | 0.00 | 0.00 | 96 | 1014.0 |
| 20260510134837 | 11 | 166 | 0.0 | 0.0 | 0.00 | 0.00 | 0.00 | 97 | 1013.9 |
| 20260510134334 | 11 | 126 | 0.0 | 0.0 | 0.00 | 0.00 | 0.00 | 96 | 1014.1 |
| 20260510133830 | 11 | 135 | 0.0 | 0.0 | 0.00 | 0.00 | 0.00 | 97 | 1013.8 |
| 20260510133326 | 11 | 60 | 0.0 | 0.0 | 0.00 | 0.00 | 0.00 | 96 | 1013.8 |
| 20260510132821 | 11 | 171 | 0.0 | 0.0 | 0.00 | 0.00 | 0.00 | 97 | 1013.8 |
| 20260510132320 | 11 | 171 | 0.0 | 0.0 | 0.00 | 0.00 | 0.00 | 95 | 1013.7 |
| 20260510131816 | 11 | 97 | 0.0 | 0.0 | 0.00 | 0.00 | 0.00 | 96 | 1013.8 |
| 20260510131314 | 11 | 180 | 0.0 | 0.0 | 0.00 | 0.00 | 0.00 | 98 | 1013.9 |
| 20260510130811 | 11 | 236 | 0.0 | 0.0 | 0.00 | 0.00 | 0.00 | 98 | 1013.8 |
| 20260510130308 | 10 | 33 | 0.0 | 0.0 | 0.00 | 0.00 | 0.00 | 99 | 1013.9 |
| 20260510125804 | 11 | 15 | 0.0 | 0.0 | 0.00 | 0.00 | 0.00 | 99 | 1013.6 |
| 20260510125300 | 11 | 109 | 0.0 | 0.0 | 0.00 | 0.00 | 0.00 | 99 | 1013.6 |
| 20260510124757 | 11 | 89 | 0.0 | 0.0 | 0.00 | 0.00 | 0.00 | 99 | 1013.6 |
| 20260510124254 | 10 | 127 | 0.0 | 0.0 | 0.00 | 0.00 | 0.00 | 99 | 1013.7 |
| 20260510123749 | 10 | 66 | 0.0 | 3.2 | 0.00 | 0.00 | 0.00 | 99 | 1013.5 |
| 20260510123245 | 10 | 121 | 0.0 | 0.0 | 0.00 | 0.00 | 0.00 | 99 | 1013.5 |
| 20260510122742 | 10 | 155 | 0.0 | 0.0 | 0.00 | 0.00 | 0.00 | 99 | 1013.6 |
| 20260510122238 | 10 | 141 | 0.0 | 0.0 | 0.00 | 0.00 | 0.00 | 99 | 1013.6 |
| 20260510121734 | 10 | 174 | 0.0 | 0.0 | 0.00 | 0.00 | 0.00 | 99 | 1013.6 |
| 20260510121232 | 10 | 166 | 0.0 | 0.0 | 0.00 | 0.00 | 0.00 | 99 | 1013.7 |
| 20260510120724 | 10 | 189 | 0.0 | 0.0 | 0.00 | 0.00 | 0.00 | 99 | 1013.9 |
| 20260510120220 | 10 | 189 | 0.0 | 0.0 | 0.00 | 0.00 | 0.00 | 99 | 1013.8 |
| 20260510115716 | 10 | 211 | 0.0 | 0.0 | 0.00 | 0.00 | 0.00 | 99 | 1013.9 |
| 20260510115215 | 10 | 211 | 0.0 | 0.0 | 0.00 | 0.00 | 0.00 | 99 | 1013.8 |
| 20260510114709 | 9 | 210 | 0.0 | 0.0 | 0.00 | 0.00 | 0.00 | 99 | 1013.9 |
| 20260510114207 | 9 | 197 | 0.0 | 0.0 | 0.00 | 0.00 | 0.00 | 99 | 1013.7 |
| 20260510113701 | 9 | 130 | 0.0 | 0.0 | 0.00 | 0.00 | 0.00 | 99 | 1013.8 |
| 20260510113158 | 9 | 142 | 0.0 | 0.0 | 0.00 | 0.00 | 0.00 | 99 | 1013.9 |
| 20260510112654 | 9 | 139 | 0.0 | 0.0 | 0.00 | 0.00 | 0.00 | 99 | 1013.9 |
| 20260510112152 | 9 | 201 | 0.0 | 0.0 | 0.00 | 0.00 | 0.00 | 99 | 1013.7 |
| 20260510111642 | 9 | 178 | 0.0 | 0.0 | 0.00 | 0.00 | 0.00 | 99 | 1013.6 |
| 20260510111139 | 8 | 221 | 0.0 | 0.0 | 0.00 | 0.00 | 0.00 | 99 | 1013.5 |
| 20260510110634 | 8 | 122 | 0.0 | 0.0 | 0.00 | 0.00 | 0.00 | 99 | 1013.3 |
| 20260510110131 | 8 | 121 | 0.0 | 0.0 | 0.00 | 0.00 | 0.00 | 99 | 1013.1 |
| 20260510105626 | 8 | 151 | 0.0 | 0.0 | 0.00 | 0.00 | 0.00 | 99 | 1013.0 |
| 20260510105121 | 8 | 221 | 0.0 | 0.0 | 0.00 | 0.00 | 0.00 | 99 | 1013.2 |
| 20260510104618 | 8 | 180 | 0.0 | 0.0 | 0.00 | 0.00 | 0.00 | 99 | 1013.0 |
| 20260510104115 | 8 | 164 | 0.0 | 0.0 | 0.00 | 0.00 | 0.00 | 99 | 1012.8 |
| 20260510103612 | 8 | 163 | 0.0 | 0.0 | 0.00 | 0.00 | 0.00 | 99 | 1012.9 |
| 20260510103108 | 7 | 163 | 0.0 | 0.0 | 0.00 | 0.00 | 0.00 | 99 | 1012.7 |
| 20260510102603 | 7 | 157 | 0.0 | 0.0 | 0.00 | 0.00 | 0.00 | 99 | 1012.9 |
| 20260510102059 | 7 | 193 | 0.0 | 0.0 | 0.00 | 0.00 | 0.00 | 99 | 1012.7 |
| 20260510101557 | 7 | 193 | 0.0 | 0.0 | 0.00 | 0.00 | 0.00 | 99 | 1012.8 |
| 20260510101055 | 7 | 193 | 0.0 | 0.0 | 0.00 | 0.00 | 0.00 | 99 | 1012.8 |
| 20260510100551 | 7 | 193 | 0.0 | 0.0 | 0.00 | 0.00 | 0.00 | 99 | 1012.3 |
| 20260510100049 | 7 | 192 | 0.0 | 0.0 | 0.00 | 0.00 | 0.00 | 99 | 1012.2 |
| 20260510095545 | 7 | 191 | 0.0 | 0.0 | 0.00 | 0.00 | 0.00 | 99 | 1012.1 |
| 20260510095044 | 7 | 191 | 0.0 | 0.0 | 0.00 | 0.00 | 0.00 | 99 | 1012.2 |
| 20260510094544 | 7 | 198 | 0.0 | 0.0 | 0.00 | 0.00 | 0.00 | 99 | 1012.2 |
| 20260510094039 | 7 | 198 | 0.0 | 0.0 | 0.00 | 0.00 | 0.00 | 99 | 1011.9 |
| 20260510093535 | 7 | 198 | 0.0 | 0.0 | 0.00 | 0.00 | 0.00 | 99 | 1012.3 |
| 20260510093033 | 7 | 198 | 0.0 | 0.0 | 0.00 | 0.00 | 0.00 | 99 | 1012.5 |
| 20260510092530 | 7 | 198 | 0.0 | 0.0 | 0.00 | 0.00 | 0.00 | 99 | 1012.5 |
| 20260510092029 | 7 | 198 | 0.0 | 0.0 | 0.00 | 0.00 | 0.00 | 99 | 1012.1 |
| 20260510091526 | 7 | 198 | 0.0 | 0.0 | 0.00 | 0.00 | 0.00 | 99 | 1012.3 |
| 20260510091022 | 7 | 198 | 0.0 | 0.0 | 0.00 | 0.00 | 0.00 | 99 | 1012.1 |
| 20260510090519 | 7 | 198 | 0.0 | 0.0 | 0.00 | 0.00 | 0.00 | 99 | 1012.2 |
| 20260510090015 | 7 | 198 | 0.0 | 0.0 | 0.00 | 0.00 | 0.00 | 99 | 1012.3 |
| 20260510085510 | 7 | 198 | 0.0 | 0.0 | 0.00 | 0.00 | 0.00 | 99 | 1012.4 |
| 20260510085006 | 7 | 198 | 0.0 | 0.0 | 0.00 | 0.00 | 0.00 | 99 | 1012.4 |
| 20260510084503 | 7 | 198 | 0.0 | 0.0 | 0.00 | 0.00 | 0.00 | 99 | 1012.6 |
| 20260510084000 | 7 | 198 | 0.0 | 0.0 | 0.00 | 0.00 | 0.00 | 99 | 1012.7 |
| 20260510083456 | 7 | 198 | 0.0 | 0.0 | 0.00 | 0.00 | 0.00 | 99 | 1012.7 |
| 20260510082951 | 7 | 198 | 0.0 | 0.0 | 0.00 | 0.00 | 0.00 | 99 | 1012.5 |
| 20260510082449 | 7 | 198 | 0.0 | 0.0 | 0.00 | 0.00 | 0.00 | 99 | 1012.4 |
| 20260510081949 | 7 | 198 | 0.0 | 0.0 | 0.00 | 0.00 | 0.00 | 99 | 1012.4 |
| 20260510081444 | 7 | 198 | 0.0 | 0.0 | 0.00 | 0.00 | 0.00 | 99 | 1012.6 |
| 20260510080942 | 7 | 198 | 0.0 | 0.0 | 0.00 | 0.00 | 0.00 | 99 | 1012.4 |
| 20260510080439 | 7 | 198 | 0.0 | 0.0 | 0.00 | 0.00 | 0.00 | 99 | 1012.4 |
| 20260510075937 | 7 | 192 | 0.0 | 0.0 | 0.00 | 0.00 | 0.00 | 99 | 1012.5 |
| 20260510075435 | 7 | 191 | 0.0 | 0.0 | 0.00 | 0.00 | 0.00 | 99 | 1012.6 |
| 20260510074931 | 7 | 191 | 0.0 | 0.0 | 0.00 | 0.00 | 0.00 | 99 | 1012.3 |
| 20260510074428 | 7 | 191 | 0.0 | 0.0 | 0.00 | 0.00 | 0.00 | 99 | 1012.4 |
| 20260510073925 | 7 | 191 | 0.0 | 0.0 | 0.00 | 0.00 | 0.00 | 99 | 1012.4 |
| 20260510073420 | 7 | 191 | 0.0 | 0.0 | 0.00 | 0.00 | 0.00 | 99 | 1012.3 |
| 20260510072917 | 7 | 191 | 0.0 | 0.0 | 0.00 | 0.00 | 0.00 | 99 | 1012.5 |
| 20260510072414 | 7 | 196 | 0.0 | 0.0 | 0.00 | 0.00 | 0.00 | 99 | 1012.4 |
| 20260510071909 | 7 | 196 | 0.0 | 0.0 | 0.00 | 0.00 | 0.00 | 99 | 1012.4 |
| 20260510071406 | 7 | 196 | 0.0 | 0.0 | 0.00 | 0.00 | 0.00 | 99 | 1012.4 |
| 20260510070905 | 7 | 196 | 0.0 | 0.0 | 0.00 | 0.00 | 0.00 | 99 | 1012.4 |
| 20260510070401 | 7 | 196 | 0.0 | 0.0 | 0.00 | 0.00 | 0.00 | 99 | 1012.2 |
| 20260510065856 | 7 | 196 | 0.0 | 0.0 | 0.00 | 0.00 | 0.00 | 99 | 1012.4 |
| 20260510065353 | 7 | 196 | 0.0 | 0.0 | 0.00 | 0.00 | 0.00 | 99 | 1012.6 |
| 20260510064850 | 7 | 196 | 0.0 | 0.0 | 0.00 | 0.00 | 0.00 | 99 | 1012.5 |
| 20260510064348 | 7 | 196 | 0.0 | 0.0 | 0.00 | 0.00 | 0.00 | 99 | 1012.4 |
| 20260510063844 | 7 | 196 | 0.0 | 0.0 | 0.00 | 0.00 | 0.00 | 99 | 1012.8 |
| 20260510063340 | 7 | 196 | 0.0 | 0.0 | 0.00 | 0.00 | 0.00 | 99 | 1012.5 |
| 20260510062837 | 7 | 196 | 0.0 | 0.0 | 0.00 | 0.00 | 0.00 | 99 | 1012.5 |
| 20260510062333 | 7 | 196 | 0.0 | 0.0 | 0.00 | 0.00 | 0.00 | 99 | 1012.4 |
| 20260510061828 | 7 | 196 | 0.0 | 0.0 | 0.00 | 0.00 | 0.00 | 99 | 1012.6 |
| 20260510061325 | 7 | 196 | 0.0 | 0.0 | 0.00 | 0.00 | 0.00 | 99 | 1012.6 |
| 20260510060821 | 7 | 196 | 0.0 | 0.0 | 0.00 | 0.00 | 0.00 | 99 | 1012.3 |
| 20260510060319 | 7 | 196 | 0.0 | 0.0 | 0.00 | 0.00 | 0.00 | 99 | 1012.5 |
| 20260510055815 | 7 | 196 | 0.0 | 0.0 | 0.00 | 0.00 | 0.00 | 99 | 1012.5 |
| 20260510055314 | 7 | 196 | 0.0 | 0.0 | 0.00 | 0.00 | 0.00 | 99 | 1012.6 |
| 20260510054813 | 7 | 196 | 0.0 | 0.0 | 0.00 | 0.00 | 0.00 | 99 | 1012.5 |
| 20260510054309 | 7 | 196 | 0.0 | 0.0 | 0.00 | 0.00 | 0.00 | 99 | 1012.4 |
| 20260510053804 | 7 | 194 | 0.0 | 0.0 | 0.00 | 0.00 | 0.00 | 99 | 1012.6 |
| 20260510053259 | 7 | 194 | 0.0 | 0.0 | 0.00 | 0.00 | 0.00 | 99 | 1012.5 |
| 20260510052756 | 7 | 212 | 0.0 | 0.0 | 0.00 | 0.00 | 0.00 | 99 | 1012.3 |
| 20260510052251 | 7 | 242 | 0.0 | 0.0 | 0.00 | 0.00 | 0.00 | 99 | 1012.7 |
| 20260510051748 | 7 | 216 | 0.0 | 0.0 | 0.00 | 0.00 | 0.00 | 99 | 1012.7 |
| 20260510051239 | 7 | 216 | 0.0 | 0.0 | 0.00 | 0.00 | 0.00 | 99 | 1012.8 |
| 20260510050736 | 7 | 216 | 0.0 | 0.0 | 0.00 | 0.00 | 0.00 | 99 | 1012.6 |
| 20260510050233 | 7 | 216 | 0.0 | 0.0 | 0.00 | 0.00 | 0.00 | 99 | 1012.8 |
| 20260510045730 | 7 | 216 | 0.0 | 0.0 | 0.00 | 0.00 | 0.00 | 99 | 1012.7 |
| 20260510045226 | 7 | 216 | 0.0 | 0.0 | 0.00 | 0.00 | 0.00 | 99 | 1013.0 |
| 20260510044723 | 7 | 216 | 0.0 | 0.0 | 0.00 | 0.00 | 0.00 | 99 | 1012.9 |
| 20260510044221 | 7 | 216 | 0.0 | 0.0 | 0.00 | 0.00 | 0.00 | 99 | 1012.9 |
| 20260510043716 | 7 | 216 | 0.0 | 0.0 | 0.00 | 0.00 | 0.00 | 99 | 1013.1 |
| 20260510043213 | 7 | 193 | 0.0 | 0.0 | 0.00 | 0.00 | 0.00 | 99 | 1013.2 |
| 20260510042710 | 7 | 219 | 0.0 | 0.0 | 0.00 | 0.00 | 0.00 | 99 | 1013.2 |
| 20260510042206 | 7 | 219 | 0.0 | 0.0 | 0.00 | 0.00 | 0.00 | 99 | 1012.9 |
| 20260510041704 | 7 | 219 | 0.0 | 0.0 | 0.00 | 0.00 | 0.00 | 99 | 1013.0 |
| 20260510041201 | 7 | 219 | 0.0 | 0.0 | 0.00 | 0.00 | 0.00 | 99 | 1013.0 |
| 20260510040657 | 7 | 219 | 0.0 | 0.0 | 0.00 | 0.00 | 0.00 | 99 | 1013.1 |
| 20260510040154 | 7 | 219 | 0.0 | 0.0 | 0.00 | 0.00 | 0.00 | 99 | 1013.0 |
| 20260510035650 | 7 | 219 | 0.0 | 0.0 | 0.00 | 2.03 | 2.03 | 99 | 1013.2 |
| 20260510035145 | 7 | 219 | 0.0 | 0.0 | 0.00 | 2.03 | 2.03 | 99 | 1012.9 |
| 20260510034642 | 7 | 219 | 0.0 | 0.0 | 0.00 | 2.03 | 2.03 | 99 | 1012.8 |
| 20260510034139 | 7 | 219 | 0.0 | 0.0 | 0.00 | 2.03 | 2.03 | 99 | 1012.9 |
| 20260510033635 | 7 | 219 | 0.0 | 0.0 | 0.00 | 2.03 | 2.03 | 99 | 1013.1 |
| 20260510033133 | 7 | 188 | 0.0 | 0.0 | 0.00 | 2.03 | 2.03 | 99 | 1013.1 |
| 20260510032630 | 7 | 188 | 0.0 | 0.0 | 0.00 | 2.03 | 2.03 | 99 | 1013.2 |
| 20260510032125 | 7 | 188 | 0.0 | 0.0 | 0.00 | 2.03 | 2.03 | 99 | 1013.2 |
| 20260510031620 | 7 | 188 | 0.0 | 0.0 | 0.00 | 2.03 | 2.03 | 99 | 1013.3 |
| 20260510031117 | 7 | 188 | 0.0 | 0.0 | 0.00 | 2.03 | 2.03 | 99 | 1013.2 |
| 20260510030611 | 7 | 188 | 0.0 | 0.0 | 0.00 | 2.03 | 2.03 | 99 | 1013.5 |
| 20260510030109 | 7 | 192 | 0.0 | 0.0 | 0.00 | 2.03 | 2.03 | 99 | 1013.6 |
| 20260510025606 | 7 | 192 | 0.0 | 0.0 | 0.00 | 2.03 | 2.03 | 99 | 1013.5 |
| 20260510025104 | 7 | 192 | 0.0 | 0.0 | 0.00 | 2.03 | 2.03 | 99 | 1013.6 |
| 20260510024600 | 7 | 192 | 0.0 | 0.0 | 0.00 | 2.03 | 2.03 | 99 | 1013.6 |
| 20260510024056 | 7 | 192 | 0.0 | 0.0 | 0.00 | 2.03 | 2.03 | 99 | 1013.4 |
| 20260510023553 | 7 | 192 | 0.0 | 0.0 | 0.00 | 2.03 | 2.03 | 99 | 1013.4 |
| 20260510023050 | 7 | 192 | 0.0 | 0.0 | 0.00 | 2.03 | 2.03 | 99 | 1013.6 |
| 20260510022549 | 7 | 192 | 0.0 | 0.0 | 0.00 | 2.03 | 2.03 | 99 | 1013.4 |
| 20260510022044 | 7 | 192 | 0.0 | 0.0 | 0.00 | 2.03 | 2.03 | 99 | 1013.7 |
| 20260510021540 | 7 | 192 | 0.0 | 0.0 | 0.00 | 2.03 | 2.03 | 99 | 1013.7 |
| 20260510021038 | 7 | 192 | 0.0 | 0.0 | 0.00 | 2.03 | 2.03 | 99 | 1013.8 |
| 20260510020532 | 7 | 192 | 0.0 | 0.0 | 0.00 | 2.03 | 2.03 | 99 | 1013.7 |
| 20260510020028 | 7 | 192 | 0.0 | 0.0 | 0.00 | 2.03 | 2.03 | 99 | 1013.8 |
| 20260510015518 | 7 | 192 | 0.0 | 0.0 | 0.00 | 2.03 | 2.03 | 99 | 1013.6 |
| 20260510015014 | 7 | 192 | 0.0 | 0.0 | 0.00 | 2.03 | 2.03 | 99 | 1013.7 |
| 20260510014511 | 7 | 191 | 0.0 | 0.0 | 0.00 | 2.03 | 2.03 | 99 | 1013.6 |
| 20260510014009 | 7 | 190 | 0.0 | 0.0 | 0.00 | 2.03 | 2.03 | 99 | 1013.9 |
| 20260510013508 | 7 | 190 | 0.0 | 0.0 | 0.00 | 2.03 | 2.03 | 99 | 1013.7 |
| 20260510013004 | 7 | 190 | 0.0 | 0.0 | 0.00 | 2.03 | 2.03 | 99 | 1013.9 |
| 20260510012458 | 7 | 183 | 0.0 | 0.0 | 0.00 | 2.03 | 2.03 | 99 | 1013.8 |
| 20260510011954 | 7 | 199 | 0.0 | 0.0 | 0.00 | 2.03 | 2.03 | 99 | 1013.7 |
| 20260510011449 | 7 | 199 | 0.0 | 0.0 | 0.00 | 2.03 | 2.03 | 99 | 1013.6 |
| 20260510010945 | 7 | 199 | 0.0 | 0.0 | 0.00 | 2.03 | 2.03 | 99 | 1013.6 |
| 20260510010443 | 6 | 199 | 0.0 | 0.0 | 0.00 | 2.03 | 2.03 | 99 | 1013.6 |
| 20260510005939 | 6 | 194 | 0.0 | 0.0 | 0.00 | 2.03 | 2.03 | 99 | 1013.6 |
| 20260510005435 | 6 | 157 | 0.0 | 0.0 | 0.00 | 2.03 | 2.03 | 99 | 1013.6 |
| 20260510004933 | 6 | 257 | 0.0 | 0.0 | 0.00 | 2.03 | 2.03 | 99 | 1013.5 |
| 20260510004430 | 6 | 253 | 0.0 | 0.0 | 0.00 | 2.03 | 2.03 | 99 | 1013.3 |
| 20260510003928 | 6 | 266 | 0.0 | 0.0 | 0.00 | 2.03 | 2.03 | 99 | 1013.5 |
| 20260510003425 | 6 | 129 | 0.0 | 0.0 | 0.00 | 2.03 | 2.03 | 99 | 1013.6 |
| 20260510002924 | 6 | 227 | 0.0 | 0.0 | 0.00 | 2.03 | 2.03 | 99 | 1013.4 |
| 20260510002421 | 6 | 110 | 0.0 | 0.0 | 0.00 | 2.03 | 2.03 | 99 | 1013.2 |
| 20260510001918 | 6 | 180 | 0.0 | 0.0 | 0.00 | 2.03 | 2.03 | 99 | 1013.3 |
| 20260510001415 | 6 | 146 | 0.0 | 0.0 | 0.00 | 2.03 | 2.03 | 99 | 1013.3 |
| 20260510000912 | 6 | 231 | 0.0 | 0.0 | 0.00 | 2.03 | 2.03 | 99 | 1013.3 |
| 20260510000411 | 6 | 231 | 0.0 | 0.0 | 0.00 | 2.03 | 2.03 | 99 | 1013.3 |
| 20260509235905 | 6 | 218 | 0.0 | 0.0 | 0.00 | 2.03 | 2.03 | 99 | 1013.2 |
| 20260509235402 | 6 | 211 | 0.0 | 0.0 | 0.00 | 2.03 | 2.03 | 99 | 1013.2 |
| 20260509234858 | 6 | 228 | 0.0 | 0.0 | 0.00 | 2.03 | 2.03 | 99 | 1013.1 |
| 20260509234355 | 6 | 228 | 0.0 | 0.0 | 0.00 | 2.03 | 2.03 | 99 | 1013.3 |
| 20260509233853 | 6 | 228 | 0.0 | 0.0 | 0.00 | 2.03 | 2.03 | 99 | 1013.2 |
| 20260509233351 | 6 | 228 | 0.0 | 0.0 | 0.00 | 2.03 | 2.03 | 99 | 1013.1 |
| 20260509232846 | 6 | 182 | 0.0 | 0.0 | 0.00 | 2.03 | 2.03 | 99 | 1013.0 |
| 20260509232344 | 6 | 199 | 0.0 | 0.0 | 0.00 | 2.03 | 2.03 | 99 | 1013.3 |
| 20260509231840 | 6 | 199 | 0.0 | 0.0 | 0.00 | 2.03 | 2.03 | 99 | 1013.1 |
| 20260509231337 | 6 | 199 | 0.0 | 0.0 | 0.00 | 2.03 | 2.03 | 99 | 1013.1 |
| 20260509230835 | 7 | 199 | 0.0 | 0.0 | 0.00 | 2.03 | 2.03 | 99 | 1012.9 |
| 20260509230332 | 6 | 199 | 0.0 | 0.0 | 0.00 | 2.03 | 2.03 | 99 | 1013.0 |
| 20260509225826 | 6 | 199 | 0.0 | 0.0 | 0.00 | 2.03 | 2.03 | 99 | 1013.0 |
| 20260509225324 | 6 | 199 | 0.0 | 0.0 | 0.00 | 2.03 | 2.03 | 99 | 1013.0 |
| 20260509224820 | 6 | 199 | 0.0 | 0.0 | 0.18 | 2.03 | 2.03 | 99 | 1013.0 |
| 20260509224316 | 6 | 199 | 0.0 | 0.0 | 0.18 | 2.03 | 2.03 | 99 | 1013.1 |
| 20260509223813 | 6 | 199 | 0.0 | 0.0 | 0.00 | 2.01 | 2.01 | 99 | 1013.1 |
| 20260509223310 | 6 | 199 | 0.0 | 0.0 | 0.00 | 2.01 | 2.01 | 99 | 1013.1 |
| 20260509222807 | 6 | 199 | 0.0 | 0.0 | 0.00 | 2.01 | 2.01 | 99 | 1013.0 |
| 20260509222306 | 6 | 199 | 0.0 | 0.0 | 0.00 | 2.01 | 2.01 | 99 | 1013.1 |
| 20260509221758 | 6 | 199 | 0.0 | 0.0 | 0.00 | 2.01 | 2.01 | 99 | 1013.1 |
| 20260509221255 | 6 | 199 | 0.0 | 0.0 | 0.00 | 2.01 | 2.01 | 99 | 1013.2 |